| time (UTC) | temp C | wind direction | speed KPH | gust KPH | rain 1hr cm | rain 24hr cm | rain mn cm | humidity % | barometer mb |
| 20260901062923 | 13 | 107 | 0.0 | 0.0 | 0.00 | 0.41 | 0.00 | 96 | 1015.4 |
| 20260901061901 | 13 | 108 | 0.0 | 0.0 | 0.00 | 0.41 | 0.00 | 96 | 1015.4 |
| 20260901060923 | 12 | 354 | 0.0 | 0.0 | 0.00 | 0.41 | 0.00 | 96 | 1015.6 |
| 20260901055901 | 13 | 354 | 0.0 | 0.0 | 0.00 | 0.41 | 0.43 | 96 | 1015.5 |
| 20260901054843 | 13 | 354 | 0.0 | 0.0 | 0.00 | 0.41 | 0.43 | 96 | 1015.5 |
| 20260901053856 | 13 | 354 | 0.0 | 0.0 | 0.00 | 0.41 | 0.43 | 96 | 1015.4 |
| 20260901052843 | 13 | 354 | 0.0 | 0.0 | 0.00 | 0.41 | 0.43 | 96 | 1015.3 |
| 20260901051813 | 13 | 354 | 0.0 | 0.0 | 0.00 | 0.41 | 0.43 | 95 | 1015.1 |
| 20260901044506 | 13 | 354 | 0.0 | 0.0 | 0.00 | 0.41 | 0.43 | 95 | 1015.1 |
| 20260901043441 | 13 | 354 | 0.0 | 0.0 | 0.00 | 0.41 | 0.43 | 95 | 1015.4 |
| 20260901042505 | 13 | 354 | 0.0 | 0.0 | 0.00 | 0.41 | 0.43 | 95 | 1015.3 |
| 20260901040317 | 14 | 354 | 0.0 | 0.0 | 0.00 | 0.41 | 0.43 | 95 | 1015.8 |
| 20260901035243 | 14 | 354 | 0.0 | 0.0 | 0.00 | 0.41 | 0.43 | 95 | 1015.7 |
| 20260901034222 | 14 | 354 | 0.0 | 0.0 | 0.00 | 0.41 | 0.43 | 95 | 1015.6 |
| 20260901033217 | 14 | 354 | 0.0 | 0.0 | 0.00 | 0.41 | 0.43 | 94 | 1015.7 |
| 20260901031117 | 14 | 354 | 0.0 | 0.0 | 0.00 | 0.41 | 0.43 | 94 | 1015.4 |
| 20260901030121 | 14 | 354 | 0.0 | 0.0 | 0.00 | 0.41 | 0.43 | 94 | 1015.2 |
| 20260901025116 | 14 | 354 | 0.0 | 0.0 | 0.00 | 0.41 | 0.43 | 93 | 1015.0 |
| 20260901024106 | 14 | 354 | 0.0 | 0.0 | 0.00 | 0.48 | 0.43 | 93 | 1014.9 |
| 20260901023051 | 14 | 354 | 0.0 | 0.0 | 0.00 | 0.61 | 0.43 | 93 | 1014.7 |
| 20260901022028 | 14 | 354 | 0.0 | 0.0 | 0.00 | 0.74 | 0.43 | 92 | 1014.6 |
| 20260901021008 | 14 | 354 | 0.0 | 0.0 | 0.00 | 0.81 | 0.43 | 92 | 1014.3 |
| 20260901020020 | 15 | 354 | 0.0 | 0.0 | 0.00 | 0.94 | 0.43 | 91 | 1014.3 |
| 20260901013846 | 15 | 359 | 0.0 | 0.0 | 0.00 | 1.04 | 0.43 | 92 | 1014.5 |
| 20260901012813 | 15 | 0 | 0.0 | 0.0 | 0.00 | 1.07 | 0.43 | 92 | 1014.5 |
| 20260901011810 | 15 | 281 | 0.0 | 0.0 | 0.00 | 1.07 | 0.43 | 90 | 1014.6 |
| 20260901005644 | 15 | 263 | 0.0 | 0.0 | 0.00 | 1.07 | 0.43 | 88 | 1014.6 |
| 20260901004617 | 15 | 234 | 0.0 | 1.6 | 0.00 | 1.07 | 0.43 | 89 | 1014.7 |
| 20260901003641 | 15 | 321 | 0.0 | 0.0 | 0.00 | 1.07 | 0.43 | 90 | 1014.7 |
| 20260901002702 | 15 | 321 | 0.0 | 0.0 | 0.00 | 1.07 | 0.43 | 89 | 1014.8 |
| 20260901001635 | 15 | 321 | 0.0 | 0.0 | 0.00 | 1.07 | 0.43 | 87 | 1015.0 |
| 20260901000637 | 16 | 322 | 0.0 | 0.0 | 0.00 | 1.07 | 0.43 | 85 | 1015.0 |
| 20260831235627 | 16 | 321 | 0.0 | 0.0 | 0.00 | 1.07 | 0.43 | 88 | 1015.1 |
| 20260831232443 | 15 | 321 | 0.0 | 0.0 | 0.00 | 1.07 | 0.43 | 89 | 1015.2 |
| 20260831231436 | 15 | 340 | 0.0 | 0.0 | 0.00 | 1.07 | 0.43 | 90 | 1015.5 |
| 20260831230453 | 15 | 340 | 0.0 | 0.0 | 0.00 | 1.07 | 0.43 | 90 | 1015.7 |
| 20260831225453 | 15 | 340 | 0.0 | 0.0 | 0.00 | 1.07 | 0.43 | 92 | 1015.6 |
| 20260831224435 | 15 | 340 | 0.0 | 1.6 | 0.00 | 1.07 | 0.43 | 91 | 1015.7 |
| 20260831223401 | 15 | 153 | 0.0 | 0.0 | 0.00 | 1.07 | 0.43 | 93 | 1015.9 |
| 20260831221258 | 14 | 125 | 0.0 | 6.4 | 0.25 | 1.07 | 0.43 | 91 | 1016.2 |
| 20260831220247 | 14 | 4 | 0.0 | 3.2 | 0.46 | 1.02 | 0.41 | 91 | 1016.3 |
| 20260831215307 | 15 | 161 | 1.6 | 11.3 | 0.25 | 0.97 | 0.33 | 86 | 1016.5 |
| 20260831214310 | 15 | 136 | 3.2 | 12.9 | 0.53 | 0.89 | 0.25 | 84 | 1016.5 |
| 20260831212235 | 16 | 156 | 4.8 | 19.3 | 0.15 | 0.76 | 0.13 | 83 | 1016.6 |
| 20260831210125 | 18 | 115 | 1.6 | 6.4 | 0.00 | 0.71 | 0.08 | 79 | 1015.7 |
| 20260831205119 | 18 | 160 | 0.0 | 3.2 | 0.00 | 0.71 | 0.08 | 81 | 1015.4 |
| 20260831201801 | 21 | 355 | 3.2 | 19.3 | 0.00 | 0.66 | 0.03 | 57 | 1015.0 |
| 20260831200801 | 22 | 316 | 4.8 | 19.3 | 0.00 | 0.64 | 0.00 | 51 | 1014.8 |
| 20260831195756 | 23 | 27 | 4.8 | 16.1 | 0.00 | 0.64 | 0.00 | 51 | 1014.6 |
| 20260831193640 | 22 | 39 | 3.2 | 11.3 | 0.00 | 0.64 | 0.00 | 50 | 1014.8 |
| 20260831192642 | 23 | 22 | 0.0 | 3.2 | 0.00 | 0.64 | 0.00 | 51 | 1015.0 |
| 20260831191621 | 22 | 346 | 0.0 | 6.4 | 0.00 | 0.64 | 0.00 | 50 | 1015.1 |
| 20260831190548 | 22 | 15 | 0.0 | 3.2 | 0.00 | 0.64 | 0.00 | 52 | 1015.4 |
| 20260831185545 | 22 | 262 | 0.0 | 0.0 | 0.00 | 0.69 | 0.00 | 55 | 1015.5 |
| 20260831184552 | 21 | 333 | 0.0 | 0.0 | 0.00 | 0.81 | 0.00 | 55 | 1015.8 |
| 20260831183539 | 20 | 343 | 0.0 | 1.6 | 0.00 | 0.81 | 0.00 | 58 | 1016.2 |
| 20260831182513 | 20 | 342 | 0.0 | 3.2 | 0.00 | 0.86 | 0.00 | 58 | 1016.4 |
| 20260831181505 | 20 | 314 | 0.0 | 0.0 | 0.00 | 0.99 | 0.00 | 62 | 1016.8 |
| 20260831180433 | 20 | 96 | 0.0 | 0.0 | 0.00 | 0.99 | 0.00 | 64 | 1016.9 |
| 20260831175435 | 19 | 100 | 0.0 | 0.0 | 0.00 | 0.99 | 0.00 | 64 | 1017.1 |
| 20260831174416 | 18 | 336 | 0.0 | 0.0 | 0.00 | 0.99 | 0.00 | 67 | 1017.4 |
| 20260831173429 | 18 | 20 | 0.0 | 1.6 | 0.00 | 0.99 | 0.00 | 68 | 1017.4 |
| 20260831172452 | 18 | 148 | 0.0 | 0.0 | 0.00 | 0.99 | 0.00 | 69 | 1017.6 |
| 20260831171456 | 17 | 274 | 0.0 | 0.0 | 0.00 | 0.99 | 0.00 | 69 | 1017.7 |
| 20260831170442 | 17 | 323 | 0.0 | 0.0 | 0.00 | 0.99 | 0.00 | 71 | 1017.9 |
| 20260831165437 | 16 | 323 | 0.0 | 0.0 | 0.00 | 0.99 | 0.00 | 73 | 1018.0 |
| 20260831164422 | 16 | 15 | 0.0 | 1.6 | 0.00 | 0.99 | 0.00 | 72 | 1018.1 |
| 20260831163358 | 16 | 6 | 0.0 | 1.6 | 0.00 | 0.99 | 0.00 | 74 | 1017.9 |
| 20260831162353 | 16 | 71 | 0.0 | 0.0 | 0.00 | 0.99 | 0.00 | 77 | 1018.1 |
| 20260831161342 | 16 | 134 | 0.0 | 0.0 | 0.00 | 0.99 | 0.00 | 76 | 1017.9 |
| 20260831160359 | 15 | 123 | 0.0 | 0.0 | 0.00 | 0.99 | 0.00 | 80 | 1017.7 |
| 20260831155349 | 15 | 8 | 0.0 | 0.0 | 0.00 | 0.99 | 0.00 | 83 | 1017.6 |
| 20260831154349 | 14 | 8 | 0.0 | 0.0 | 0.00 | 0.99 | 0.00 | 84 | 1017.7 |
| 20260831152215 | 13 | 8 | 0.0 | 0.0 | 0.00 | 0.99 | 0.00 | 90 | 1017.9 |
| 20260831151146 | 13 | 8 | 0.0 | 1.6 | 0.00 | 0.99 | 0.00 | 93 | 1018.2 |
| 20260831150133 | 12 | 11 | 0.0 | 1.6 | 0.00 | 0.99 | 0.00 | 95 | 1018.2 |
| 20260831145132 | 12 | 70 | 0.0 | 0.0 | 0.00 | 0.99 | 0.00 | 97 | 1018.3 |
| 20260831144140 | 11 | 22 | 0.0 | 0.0 | 0.00 | 0.99 | 0.00 | 97 | 1018.4 |
| 20260831142015 | 10 | 67 | 0.0 | 0.0 | 0.00 | 0.99 | 0.00 | 98 | 1018.5 |
| 20260831134842 | 9 | 136 | 0.0 | 0.0 | 0.00 | 0.99 | 0.00 | 98 | 1018.3 |
| 20260831133832 | 8 | 137 | 0.0 | 0.0 | 0.00 | 0.99 | 0.00 | 98 | 1018.3 |
| 20260831132828 | 8 | 136 | 0.0 | 0.0 | 0.00 | 0.99 | 0.00 | 98 | 1018.3 |
| 20260831130730 | 8 | 137 | 0.0 | 0.0 | 0.00 | 0.99 | 0.00 | 97 | 1017.8 |
| 20260831125744 | 8 | 137 | 0.0 | 0.0 | 0.00 | 0.99 | 0.00 | 97 | 1017.6 |
| 20260831124716 | 8 | 137 | 0.0 | 0.0 | 0.00 | 0.99 | 0.00 | 97 | 1017.5 |
| 20260831123732 | 8 | 136 | 0.0 | 0.0 | 0.00 | 0.99 | 0.00 | 97 | 1017.5 |
| 20260831122709 | 8 | 136 | 0.0 | 0.0 | 0.00 | 0.99 | 0.00 | 97 | 1017.5 |
| 20260831120602 | 8 | 136 | 0.0 | 0.0 | 0.00 | 0.99 | 0.00 | 97 | 1017.6 |
| 20260831115556 | 8 | 136 | 0.0 | 0.0 | 0.00 | 0.99 | 0.00 | 97 | 1017.5 |
| 20260831114600 | 8 | 137 | 0.0 | 0.0 | 0.00 | 0.99 | 0.00 | 97 | 1017.5 |
| 20260831113619 | 8 | 137 | 0.0 | 0.0 | 0.00 | 0.99 | 0.00 | 97 | 1017.4 |
| 20260831112548 | 8 | 136 | 0.0 | 0.0 | 0.00 | 0.99 | 0.00 | 97 | 1017.3 |
| 20260831111548 | 8 | 136 | 0.0 | 0.0 | 0.00 | 0.99 | 0.00 | 97 | 1017.1 |
| 20260831110548 | 8 | 136 | 0.0 | 0.0 | 0.00 | 0.99 | 0.00 | 97 | 1017.0 |
| 20260831105605 | 8 | 137 | 0.0 | 0.0 | 0.00 | 0.99 | 0.00 | 97 | 1016.9 |
| 20260831104622 | 8 | 137 | 0.0 | 0.0 | 0.00 | 0.99 | 0.00 | 97 | 1017.1 |
| 20260831103631 | 8 | 137 | 0.0 | 0.0 | 0.00 | 0.99 | 0.00 | 97 | 1017.0 |
| 20260831102620 | 8 | 136 | 0.0 | 0.0 | 0.00 | 0.99 | 0.00 | 97 | 1016.9 |
| 20260831100511 | 9 | 137 | 0.0 | 0.0 | 0.00 | 0.99 | 0.00 | 97 | 1016.8 |
| 20260831093239 | 10 | 136 | 0.0 | 0.0 | 0.00 | 0.99 | 0.00 | 97 | 1016.8 |
| 20260831092231 | 10 | 137 | 0.0 | 0.0 | 0.00 | 0.99 | 0.00 | 97 | 1016.8 |
| 20260831091211 | 10 | 137 | 0.0 | 0.0 | 0.00 | 0.99 | 0.00 | 97 | 1016.9 |
| 20260831090713 | 9 | 136 | 0.0 | 0.0 | 0.00 | 0.99 | 0.00 | 97 | 1016.9 |
| 20260831085724 | 9 | 137 | 0.0 | 0.0 | 0.00 | 0.99 | 0.00 | 97 | 1016.8 |
| 20260831084657 | 8 | 137 | 0.0 | 0.0 | 0.00 | 0.99 | 0.00 | 97 | 1016.9 |
| 20260831083625 | 8 | 137 | 0.0 | 0.0 | 0.00 | 0.99 | 0.00 | 97 | 1016.8 |
| 20260831081519 | 8 | 137 | 0.0 | 0.0 | 0.00 | 0.99 | 0.00 | 97 | 1016.9 |
| 20260831080537 | 8 | 137 | 0.0 | 0.0 | 0.00 | 0.99 | 0.00 | 96 | 1016.8 |
| 20260831075551 | 9 | 137 | 0.0 | 0.0 | 0.00 | 0.99 | 0.00 | 96 | 1016.8 |
| 20260831074531 | 9 | 137 | 0.0 | 0.0 | 0.00 | 0.99 | 0.00 | 96 | 1016.9 |
| 20260831073515 | 9 | 137 | 0.0 | 0.0 | 0.00 | 0.99 | 0.00 | 96 | 1016.7 |
| 20260831072509 | 10 | 136 | 0.0 | 0.0 | 0.00 | 0.99 | 0.00 | 96 | 1016.7 |
| 20260831071530 | 10 | 136 | 0.0 | 0.0 | 0.00 | 0.99 | 0.00 | 96 | 1016.8 |
| 20260831070550 | 10 | 137 | 0.0 | 0.0 | 0.00 | 0.99 | 0.00 | 96 | 1016.9 |
| 20260831065610 | 10 | 137 | 0.0 | 0.0 | 0.00 | 0.99 | 0.00 | 96 | 1016.9 |
| 20260831064633 | 10 | 137 | 0.0 | 0.0 | 0.00 | 0.99 | 0.00 | 96 | 1017.0 |